Estación meteorológica de Els Cortals - St. Hilari Sacalm (La Selva, Guilleries)

Consulta los datos en tiempo real de la estación meteorológica de Els Cortals - St. Hilari Sacalm





Hora UTC 04:15
Temperatura 17.8 ºC
Humedad 76.0 %
Presión 1013.2 hPa
Pluja 0.0 mm
Velocidad viento 0.0 km/h
Dirección viento WSW

Datos diarios 2026-09-02



Hora UTC (invierno +1h; verano +2h)
Temperatura (ºC) Humedad (%) Presión (hPa) Velocidad viento (km/h) Precipitación (mm)
Hora UTC Aire Humedad Presión Vel. Dir. Vel. Max Dir. Intent. máx 5 min.
00:05 18.9 82.0 1013.6 0.0 WSW 0.0 0.0
00:10 18.9 82.0 1013.6 0.0 WSW 0.0 0.0
00:15 18.9 82.0 1013.6 0.0 WSW 0.0 0.0
00:20 18.9 82.0 1013.6 0.0 WSW 0.0 0.0
00:25 18.8 82.0 1013.6 0.0 WSW 0.0 0.0
00:30 18.8 82.0 1013.5 0.0 WSW 0.0 0.0
00:35 18.8 82.0 1013.5 0.0 WSW 0.0 0.0
00:40 18.8 82.0 1013.5 0.0 WSW 0.0 0.0
00:45 18.8 82.0 1013.4 0.0 WSW 0.0 0.0
00:50 18.8 82.0 1013.5 0.0 WSW 0.0 0.0
00:55 18.7 82.0 1013.4 0.0 WSW 0.0 0.0
01:00 18.5 82.0 1013.4 0.0 WSW 0.0 0.0
01:05 18.5 82.0 1013.4 0.0 WSW 0.0 0.0
01:10 18.6 82.0 1013.4 0.0 WSW 0.0 0.0
01:15 18.7 82.0 1013.4 0.0 WSW 0.0 0.0
01:20 18.7 82.0 1013.4 0.0 WSW 0.0 0.0
01:25 18.6 82.0 1013.4 0.0 WSW 0.0 0.0
01:30 18.5 82.0 1013.4 0.0 WSW 0.0 0.0
01:35 18.6 82.0 1013.3 0.0 WSW 0.0 0.0
01:40 18.6 82.0 1013.3 0.0 WSW 0.0 0.0
01:45 18.4 82.0 1013.2 0.0 WSW 0.0 0.0
01:50 18.4 82.0 1013.2 0.0 WSW 0.0 0.0
01:55 18.3 82.0 1013.3 0.0 WSW 0.0 0.0
02:00 18.3 82.0 1013.3 0.0 WSW 0.0 0.0
02:05 18.2 82.0 1013.3 0.0 WSW 0.0 0.0
02:10 18.1 82.0 1013.3 0.0 WSW 0.0 0.0
02:15 18.2 82.0 1013.2 0.0 WSW 0.0 0.0
02:20 18.2 82.0 1013.3 0.0 WSW 0.0 0.0
02:25 17.9 82.0 1013.2 0.0 WSW 0.0 0.0
02:30 17.9 83.0 1013.1 0.0 WSW 0.0 0.0
02:35 17.9 82.0 1013.3 0.0 WSW 0.0 0.0
02:40 17.9 82.0 1013.3 0.0 WSW 0.0 0.0
02:45 17.9 83.0 1013.2 0.0 WSW 0.0 0.0
02:50 17.8 82.0 1013.2 0.0 WSW 0.0 0.0
02:55 17.9 82.0 1013.3 0.0 WSW 0.0 0.0
03:00 17.8 82.0 1013.2 0.0 WSW 0.0 0.0
03:05 17.8 82.0 1013.2 0.0 WSW 0.0 0.0
03:10 17.7 82.0 1013.2 0.0 WSW 0.0 0.0
03:15 17.7 82.0 1013.3 0.0 WSW 0.0 0.0
03:20 17.6 81.0 1013.3 0.0 WSW 0.0 0.0
03:25 17.7 81.0 1013.2 0.0 WSW 0.0 0.0
03:30 17.7 80.0 1013.3 0.0 WSW 0.0 0.0
03:35 17.9 79.0 1013.3 0.0 WSW 0.0 0.0
03:40 17.9 79.0 1013.3 0.0 WSW 0.0 0.0
03:45 17.8 78.0 1013.2 0.0 WSW 0.0 0.0
03:50 17.8 78.0 1013.3 0.0 WSW 0.0 0.0
03:55 17.8 77.0 1013.4 0.0 WSW 0.0 0.0
04:00 18.0 77.0 1013.2 0.0 WSW 0.0 0.0
04:05 17.8 76.0 1013.2 0.0 WSW 0.0 0.0
04:10 17.9 76.0 1013.3 0.0 WSW 0.0 0.0
04:15 17.8 76.0 1013.2 0.0 WSW 0.0 0.0
Máxima 18.9 83.0 1013.6 0.0 WSW 0.0 0.0
Mínima 17.6 76.0 1013.1
Total 0.0